Regional Weather Roundup
Issued by NWS Midland/Odessa, TX

Home | Current Version | Previous Version | Text Only | Print | Product List | Glossary On
Versions: 1 2 3 4 5 6 7 8 9 10 11 12 13 14 15 16 17 18 19 20 21 22 23 24 25 26 27 28 29 30 31 32 33 34 35 36 37 38 39 40 41 42 43 44 45 46 47 48 49 50
000
ASUS44 KMAF 182010
RWRMAF
MIDLAND AREA WEATHER ROUNDUP
NATIONAL WEATHER SERVICE MIDLAND TX
300 PM CDT SAT APR 18 2015

...IN SOUTHWEST TEXAS AND SOUTHEAST NEW MEXICO...

CITY           SKY/WX    TMP DP  RH WIND       PRES   REMARKS
ALPINE         SUNNY     73  20  13 W16G30    30.02S
ANDREWS        FAIR      76  17  11 W16G31    29.87F
ARTESIA        MOSUNNY   73  25  16 W20G38    29.86S
BIG SPRING     SUNNY     83  23  11 SW15G24   29.87F
CARLSBAD       SUNNY     77  14   9 W23G35    29.86F
DRYDEN           N/A     82  45  27 W8        29.83F
FORT STOCKTON  SUNNY     79  23  12 W14       29.88F
GUAD PASS      SUNNY     68  14  12 W47G54    29.93S
HOBBS          SUNNY     72  23  16 SW15G24   29.88F
MARFA          SUNNY     72  21  15 W17G23    30.01F
MIDLAND AIRPK  SUNNY     80  18  10 SW20G26   29.87F
MIDLAND INTL   SUNNY     79  21  11 SW15G30   29.87F
ODESSA         SUNNY     78  16   9 W15G29    29.88F
PECOS          SUNNY     82  22  11 SW22G28   29.86F
PRESIDIO       FAIR      81  21  11 S9G17     29.90F
SEMINOLE       SUNNY     75  21  13 W20       29.88F
SNYDER         SUNNY    N/A N/A N/A SW17      29.84F
WINK           SUNNY     80  14   8 SW13G24   29.85F
$$
...OTHER STATIONS IN TEXAS...

CITY           SKY/WX    TMP DP  RH WIND       PRES   REMARKS
ABILENE        MOSUNNY   78  59  51 VRB5      29.82F
AMARILLO       PTSUNNY   69  24  18 SW23G29   29.83F
AUSTIN         CLOUDY    75  66  73 E8        29.79F
BROWNSVILLE    CLOUDY    78  69  73 E8        29.81F
CORPUS CHRISTI HVY RAIN  67  64  90 NW23G35   29.85R VSB 1/2
DALLAS FTW     PTSUNNY   79  63  57 E3        29.81F
DEL RIO        PTSUNNY   76  62  62 NW5       29.81F
EL PASO        MOSUNNY   73  20  13 SW13G25   29.94F
HOUSTON INT    CLOUDY    77  69  76 CALM      29.80F
LUBBOCK        MOSUNNY   75  21  13 W18G26    29.83F
SAN ANGELO     TSTM      74  51  44 NW10      29.82S
SAN ANTONIO    PTSUNNY   76  65  68 E6        29.82F
WACO           CLOUDY    76  62  62 NE3       29.81F
WICHITA FALLS  NOT AVBL
$$
...OTHER LOCATIONS IN NEW MEXICO...

CITY           SKY/WX    TMP DP  RH WIND       PRES   REMARKS
ALAMAGORDO     MOSUNNY   70  21  16 W13G24    29.93F
ALBUQUERQUE    MOSUNNY   58  25  28 NW15G25   29.97F
CANNON AFB     NOT AVBL
CLOVIS         MOSUNNY   66  27  22 SW18G28   29.87S
HOLLOMAN AFB   MOSUNNY   73  21  14 NW9G18    29.91F
ROSWELL        MOSUNNY   73  25  16 SW17      29.84F
RUIDOSO        MOSUNNY   57  19  23 W18G29    29.98S
SANTA FE       PTSUNNY   48  32  53 W10       29.96F
TRUTH OR CONSE PTSUNNY   70  25  18 NW23G29   29.94F
TUCUMCARI      SUNNY     65  30  27 W13G23    29.84F
$$



USA.gov is the U.S. government's official web portal to all federal, state and local government web resources and services.